INTELSAT 11 (IS-11) (32253 NORAD) Tracking and Keplerian Element Data

This shows tracking and keplerian element data for the satellite.

Feedback or suggestion? Click here.




ElementValue
Catalog32253
NameINTELSAT 11 (IS-11)
Epoch Orbit3963
Epoch Day201.41817934
Epoch Year2018
RAAN239.4427
Inclination0.0523
Eccentricity0.00015
Argument of Perigee229.0779
Mean Anonmoly297.1575
Mean Motion1.00272346
Decay Rate-2.85E-06
L11 32253U 07044B 18201.41817934 -.00000285 00000-0 00000-0 0 9995
L22 32253 0.0523 239.4427 0001500 229.0779 297.1575 1.00272346 39632

Live tracking and technical data element details for INTELSAT 11 (IS-11) (NORAD 32253). INTELSAT 11 (IS-11) can be tracked NOW for your location showing map with azimuth and elevation plus other details from your city location.

Track the satellite on the map from your city or location and see movement details for azimuth, elevation, latitude, longitude, range, height, and movement on the map or in text.







IsCatalogInMostPopularTable: catalog: 32253, numindb: 47
Update: records affected: 1



GetName: 32253 INTELSAT 11 (IS-11)

Hit Count: updated at: Sat, 21 Jul 2018 07:55:12 GMT